Location: Danville Conservation Area
(38.8674°N, 91.5143°W)
Time: 01:58:20
(UTC-06:00)

X-37B - Pass Details

Date: 07 December 2021
Orbit: 331 x 339 km, 45.0° (Epoch: 27 January)

Event Time Altitude Azimuth Distance (km) Brightness Sun altitude
Rises 17:15:24 0° 225° (SW) 2,089 5.9 -6.3°
Reaches altitude 10° 17:17:28 10° 217° (SW) 1,255 4.3 -6.7°
Maximum altitude 17:20:06 37° 148° (SSE) 535 1.2 -7.2°
Enters shadow 17:22:43 10° 78° (ENE) 1,252 2.5 -7.6°
